User: anonymous   Login
Location: Camp Creek
(33.9000°N, 111.8167°W)
Time: 03:27:51
(UTC-07:00)
Language:

Cosmos 2322 Rocket - Orbit

View from above orbital plane
View from above orbital plane
View from above satellite
View from above satellite

Ground track
Ground track

The orbit data is extracted from the following two-line orbital elements,

1 23705U 95058B   16269.08894913 -.00000289  00000-0 -12435-3 0  9999
2 23705  71.0198 225.2187 0013440 332.2726  27.7679 14.15085454 79684
Epoch (UTC): 25 September 2016 02:08:05
Eccentricity: 0.0013440
inclination: 71.0198°
perigee height: 832 km
apogee height: 852 km
right ascension of ascending node: 225.2187°
argument of perigee: 332.2726°
revolutions per day: 14.15085454
mean anomaly at epoch: 27.7679°
orbit number at epoch: 7968

The dashed part of the orbit path shows where the satellite is in the earth's shadow,  

DLR